Siga o Apolo11 no Facebook   Siga o Apolo11 no Twiiter
Ciência, Espaço e Tecnologia




Elementos Keplerianos formato Two Line

Para que um programa de rastreio possa saber a localização exata de qualquer satélite no espaço e assim poder rastreá-lo corretamente, é necessário que ele seja carregado com algumas informações.

Estas informações são chamadas de Elementos Orbitais ou Elementos Keplerianos e consistem em 2 linhas com dezenas de números. Esses números nada mais são que os parâmetros orbitais do satélite, tais como altitude, atitude, excentricidade da órbita, número de órbitas por dia, etc.

Com base nestas informações o programa é capaz de determinar com bastante exatidão a posição de qualquer satélite no espaço e nos informar em qual horário este estará dentro do alcance de nossa estação. Para que isso seja feito com precisão é necessário que os dados estejam sempre bem atualizadas.

Devido aos parâmetros orbitais serem descritos em 2 linhas, estes formato é também conhecido internacionalmente por 2line (leia-se Two Line”).

Para atualizar seu programa de rastreio basta copiar os dados disponibilizados e fornece-los ao programa. Nossos elementos orbitais são atualizados diariamente.

NOAATodos os satélites ambientais da série NOAA
30 DiasSatélites lançados nos últimos 30 dias
ISSSatélites e foguetes relacionados à Estação Espacial Internacional
HAMSatélites construídos por radiomadores
CUBESatélites tipo cubo, com 10 centímetros de lado
METEOSatélites voltados à previsão do tempo
EDUSatélites construídos e operados por universidades
VIS100 satélites mais brilhantes que podem ser vistos a olho nú



Satélites Educacionais
SAUDISAT 1C             
1 27607U 02058C   20094.75188672  .00000027  00000-0  24507-4 0  9997
2 27607  64.5547 242.7614 0057337 196.5793 163.3437 14.75621498929707
SAUDISAT 2              
1 28371U 04025F   20094.85934054  .00000002  00000-0  11153-4 0  9992
2 28371  98.2713  44.5404 0026818  64.2015 296.1964 14.54374478836334
SAUDISAT 3              
1 31118U 07012B   20094.78420333  .00000001  00000-0  81205-5 0  9991
2 31118  97.8611  55.7721 0013927 239.0539 120.9298 14.69158877694958
PISAT                   
1 41784U 16059B   20094.83851521  .00000086  00000-0  25636-4 0  9993
2 41784  98.0274 153.3266 0031904 186.1275 173.9542 14.63499816187995
FLYING LAPTOP           
1 42831U 17042G   20094.84171976  .00000163  00000-0  21722-4 0  9998
2 42831  97.5319 340.2002 0014260 167.8560 192.3005 14.91103408148173


IMAGENS DE SATÉLITES !    Clique e conheça nosso Vídeo Workshop de sensoriamento remoto e imagens meteorológicas.
Apolo11.com - Todos os direitos reservados - 2001 - 2020
Política de Privacidade

"Estão todos malucos !" - D. Pedro II